Location: Ergnies
(50.0854°N, 2.0375°E)
Time: 23:47:13
(UTC+00:00)

Cosmos 864 Rocket - Visible Passes

Search period start: 18 April 2026 00:00
Search period end: 28 April 2026 00:00
Orbit: 952 x 991 km, 82.9° (Epoch: 18 April)

Date Brightness Start Highest point End Pass type
(mag) Time Alt. Az. Time Alt. Az. Time Alt. Az.
18 Apr 4.7 20:10:54 10° SSW 20:17:09 75° W 20:23:22 10° N visible
18 Apr 7.1 21:59:56 10° W 22:03:36 16° WNW 22:07:16 10° NNW visible
19 Apr 5.6 20:35:27 10° SW 20:41:26 47° WNW 20:47:24 10° N visible
20 Apr 6.4 21:00:32 10° SW 21:05:53 29° WNW 21:11:15 10° N visible
21 Apr 4.6 19:38:03 10° S 19:44:18 89° WNW 19:50:32 10° N visible
21 Apr 7.1 21:26:15 10° WSW 21:30:31 19° WNW 21:34:47 10° NNW visible
22 Apr 5.3 20:02:25 10° SSW 20:08:32 56° WNW 20:14:37 10° N visible
22 Apr 7.5 21:53:10 10° WNW 21:55:20 12° NW 21:57:31 10° NNW visible
23 Apr 6.2 20:27:17 10° SW 20:32:55 35° WNW 20:38:32 10° N visible
24 Apr 7.0 20:52:43 10° WSW 20:57:28 22° WNW 21:02:13 10° NNW visible
25 Apr 5.0 19:29:27 10° SSW 19:35:38 68° WNW 19:41:48 10° N visible
25 Apr 7.4 21:19:02 10° W 21:22:13 14° NW 21:25:24 10° NNW visible
26 Apr 5.9 19:54:06 10° SW 19:59:57 42° WNW 20:05:48 10° N visible
27 Apr 6.8 20:19:19 10° WSW 20:24:27 27° WNW 20:29:35 10° N visible
